Regional Weather Roundup
Issued by NWS Kansas City/Pleasant Hill, MO

Home | Current Version | Previous Version | Graphics & Text | Print | Product List | Glossary Off
Versions: 1 2 3 4 5 6 7 8 9 10 11 12 13 14 15 16 17 18 19 20 21 22 23 24 25 26 27 28 29 30 31 32 33 34 35 36 37 38 39 40 41 42 43 44 45 46 47 48 49 50

000
ASUS43 KEAX 140310
RWREAX

WEATHER ROUNDUP FOR EASTERN KANSAS AND NORTHWEST MISSOURI
NATIONAL WEATHER SERVICE KANSAS CITY/PLEASANT HILL MO
900 PM CST SAT FEB 13 2016

KSZ040-057-103>105-MOZ028-029-037-043-140400-
...KANSAS CITY METROPOLITAN AREA...

CITY           SKY/WX    TMP DP  RH WIND       PRES   REMARKS
K.C. INTL      CLOUDY    21   4  47 E14       30.26F WCI   8
K.C. DOWNTOWN  CLOUDY    23   3  42 E13       30.28F WCI  11
LEES SUMMIT    CLOUDY    22   2  42 E10       30.27F WCI  11
OLATHE - IXD   CLOUDY    22   4  46 E9        30.24F WCI  12
OLATHE - OJC   CLOUDY    21   2  43 E12       30.24F WCI   9
LAWRENCE       CLOUDY    23   3  42 E12       30.26F WCI  12

$$

MOZ001>008-011>017-020>025-030>033-038>040-044>046-053-054-140400-
...NORTHERN AND CENTRAL MISSOURI...

CITY           SKY/WX    TMP DP  RH WIND       PRES   REMARKS
ST. JOSEPH     CLOUDY    20   0  41 SE9       30.30F WCI   9
MOSBY          CLOUDY    23   3  42 E7        30.31F WCI  15
WARRENSBURG    CLOUDY    23   3  42 E13       30.30F WCI  11
WHITEMAN AFB   CLOUDY    22   3  42 E10       30.28F WCI  12
CLINTON          N/A     28   7  40 E10       30.29F WCI  19
SEDALIA        CLOUDY    23   2  40 E16       30.30F WCI  10
WARSAW         NOT AVBL
CHILLICOTHE      N/A     21   4  47 SE10      30.36S WCI  10
KIRKSVILLE     CLOUDY    17   6  62 E10       30.36F WCI   5

$$

MOZ041-047>049-056>058-063>065-088>090-097-140400-
...EASTERN AND SOUTHERN MISSOURI...

CITY           SKY/WX    TMP DP  RH WIND       PRES   REMARKS
ST. LOUIS INTL CLOUDY    23   5  46 E13       30.43F WCI  11
SPIRIT OF STL  CLOUDY    23   3  42 SE6       30.43F WCI  16
COLUMBIA       CLOUDY    21   2  43 SE13      30.34F WCI   9
JEFFERSON CITY CLOUDY    23   3  42 E10       30.37F WCI  12
ROLLA          CLOUDY    22   2  42 E14       30.31F WCI   9
OSAGE BEACH    CLOUDY    25   1  36 E10       30.31F WCI  15
SPRINGFIELD    CLOUDY    32  -2  23 SE22      30.20F WCI  19
BRANSON        CLOUDY    32   1  27 SE15      30.24F WCI  22
JOPLIN         CLOUDY    35   7  31 E8        30.17F WCI  29
WEST PLAINS    CLOUDY    24   2  38 SE10      30.33F WCI  14

$$

IAZ060-094-KSZ022-034>040-054-083-096-NEZ052-066-093-140400-
...KANSAS...SOUTHEAST NEBRASKA AND IOWA...

CITY           SKY/WX    TMP DP  RH WIND       PRES   REMARKS
TOPEKA         CLOUDY    24   2  38 E10       30.24F WCI  14
MANHATTAN      PTCLDY    22   6  50 E9        30.20F WCI  12
EMPORIA        CLOUDY    22   8  55 E14       30.18F WCI   9
CHANUTE        CLOUDY    30   7  37 E10       30.19F WCI  21
WICHITA        CLOUDY    36   9  32 E14       30.10F WCI  27
OMAHA          CLOUDY    19   4  51 SE20      30.25F WCI   3
LINCOLN        CLOUDY    20   6  55 SE17      30.19F WCI   5
FALLS CITY     CLOUDY    21   3  45 SE10      30.25F WCI  10
LAMONI         CLOUDY    17   2  51 SE9       30.30F WCI   6
DES MOINES     LGT SNOW  14   8  77 SE12      30.35F WCI   0

$$




USA.gov is the U.S. government's official web portal to all federal, state and local government web resources and services.